Bookmark and Share
Track history (hours):
 

Elizabeth

Last reported at 2014-Apr-19 04:30 UTC. Time now 2014-Apr-19 05:11 UTC.
Position S 23°57' W 046°19'.

Length 190 m; draft 11.5 m.

Type: Cargo ship. MMSI: 566073000.

NotesDate/timePositionNaut miles runAvg speedWind from/ knotsBaromVisibWave heightAir tempDewpointWater temp
2014-Apr-19 04:30S 23°57' W 046°19'0 0.0
2014-Apr-19 03:33S 23°57' W 046°19'0 0.0
2014-Apr-19 02:33S 23°57' W 046°19'0 0.0
2014-Apr-19 01:33S 23°57' W 046°19'0 0.0
2014-Apr-19 00:33S 23°57' W 046°19'0 0.0
2014-Apr-18 23:33S 23°57' W 046°19'0 0.0
2014-Apr-18 22:33S 23°57' W 046°19'0 0.0
2014-Apr-18 21:33S 23°57' W 046°19'0 0.0
2014-Apr-18 20:33S 23°57' W 046°19'0 0.0
2014-Apr-18 19:33S 23°57' W 046°19'0 0.0
2014-Apr-18 18:33S 23°57' W 046°19'0 0.0
2014-Apr-18 17:33S 23°57' W 046°19'0 0.0
2014-Apr-18 16:30S 23°57' W 046°19'0 0.0
2014-Apr-18 15:33S 23°57' W 046°19'0 0.0
2014-Apr-18 14:33S 23°57' W 046°19'0 0.0
2014-Apr-18 13:33S 23°57' W 046°19'0 0.0
2014-Apr-18 12:33S 23°57' W 046°19'0 0.0
2014-Apr-18 11:33S 23°57' W 046°19'0 0.0
2014-Apr-18 10:33S 23°57' W 046°19'0 0.0
2014-Apr-18 09:33S 23°57' W 046°19'0 0.0
2014-Apr-18 08:33S 23°57' W 046°19'0 0.0
2014-Apr-18 07:33S 23°57' W 046°19'0 0.0
2014-Apr-18 06:30S 23°57' W 046°19'0 0.0
2014-Apr-18 05:27S 23°57' W 046°19'0 0.0
2014-Apr-18 04:33S 23°57' W 046°19'0 0.0
2014-Apr-18 03:33S 23°57' W 046°19'0 0.0
2014-Apr-18 02:33S 23°57' W 046°19'0 0.0
2014-Apr-18 01:33S 23°57' W 046°19'0 0.0
2014-Apr-18 00:33S 23°57' W 046°19'0 0.0
2014-Apr-17 23:33S 23°57' W 046°19'0 0.0
2014-Apr-17 22:33S 23°57' W 046°19'0 0.0
2014-Apr-17 21:33S 23°57' W 046°19'0 0.0
2014-Apr-17 20:33S 23°57' W 046°19'0 0.0
2014-Apr-17 19:30S 23°57' W 046°19'0 0.0
2014-Apr-17 18:30S 23°57' W 046°19'0 0.0
2014-Apr-17 17:33S 23°57' W 046°19'0 0.0
2014-Apr-17 16:33S 23°57' W 046°19'0 0.0
2014-Apr-17 15:30S 23°57' W 046°19'0 0.0
2014-Apr-17 14:33S 23°57' W 046°19'0 0.0
2014-Apr-17 13:33S 23°57' W 046°19'0 0.0
2014-Apr-17 12:33S 23°57' W 046°19'0 0.0
2014-Apr-17 11:33S 23°57' W 046°19'0 0.0
2014-Apr-17 10:33S 23°57' W 046°19'0 0.0
2014-Apr-17 09:33S 23°57' W 046°19'0 0.0
2014-Apr-17 08:33S 23°57' W 046°19'0 0.0
2014-Apr-17 07:33S 23°57' W 046°19'0 0.0
2014-Apr-17 06:33S 23°57' W 046°19'0 0.0
2014-Apr-17 05:33S 23°57' W 046°19'0 0.0
2014-Apr-17 04:33S 23°57' W 046°19'0 0.0
2014-Apr-17 03:33S 23°57' W 046°19'0 0.0
2014-Apr-17 02:33S 23°57' W 046°19'0 0.0
2014-Apr-17 01:33S 23°57' W 046°19'0 0.0
2014-Apr-17 00:33S 23°57' W 046°19'0 0.0
2014-Apr-16 23:27S 23°57' W 046°19'0 0.0
2014-Apr-16 22:33S 23°57' W 046°19'0 0.0
2014-Apr-16 21:33S 23°57' W 046°19'0 0.0
2014-Apr-16 20:33S 23°57' W 046°19'0 0.0
2014-Apr-16 19:33S 23°57' W 046°19'0 0.0
2014-Apr-16 18:33S 23°57' W 046°19'0 0.0
2014-Apr-16 17:33S 23°57' W 046°19'0 0.0
2014-Apr-16 16:33S 23°57' W 046°19'0 0.0
2014-Apr-16 15:33S 23°57' W 046°19'0 0.0
2014-Apr-16 14:33S 23°57' W 046°19'0 0.0
2014-Apr-16 13:27S 23°57' W 046°19'0 0.0
2014-Apr-16 12:33S 23°57' W 046°19'0 0.0
2014-Apr-16 11:33S 23°57' W 046°19'0 0.0
2014-Apr-16 10:33S 23°57' W 046°19'13 2.5
2014-Apr-16 05:07S 24°09' W 046°25'0 0.4
2014-Apr-16 04:33S 24°09' W 046°25'4 3.8
2014-Apr-16 03:31S 24°12' W 046°22'7 7.1
2014-Apr-16 02:32S 24°14' W 046°14'0 0.0
2014-Apr-15 23:25S 24°14' W 046°14'0 0.0
2014-Apr-15 16:28S 24°14' W 046°14'0 0.0
2014-Apr-15 15:22S 24°14' W 046°14'0 0.0
2014-Apr-15 09:31S 24°14' W 046°14'0 0.0
2014-Apr-15 05:31S 24°14' W 046°14'0 0.0
2014-Apr-14 16:31S 24°14' W 046°14'0 0.0
2014-Apr-14 11:31S 24°14' W 046°14'0 0.0
2014-Apr-14 07:31S 24°14' W 046°14'0 0.0
2014-Apr-13 22:16S 24°14' W 046°14'0 0.0
2014-Apr-13 21:31S 24°14' W 046°14'0 0.0
2014-Apr-13 20:28S 24°14' W 046°14'0 0.0
2014-Apr-13 19:31S 24°14' W 046°14'0 0.0
2014-Apr-13 18:31S 24°14' W 046°14'0 0.0
2014-Apr-13 17:31S 24°14' W 046°14'0 0.0
2014-Apr-13 16:19S 24°14' W 046°14'0 0.0
2014-Apr-13 14:22S 24°14' W 046°14'0 0.0
2014-Apr-13 13:28S 24°14' W 046°14'0 0.1
2014-Apr-13 11:13S 24°14' W 046°14'0 0.0
2014-Apr-13 09:22S 24°14' W 046°14'0 0.0
2014-Apr-13 08:31S 24°14' W 046°14'0 0.0
2014-Apr-13 05:22S 24°14' W 046°14'0 0.0
2014-Apr-13 04:28S 24°14' W 046°14'0 0.0
2014-Apr-12 23:07S 24°14' W 046°14'0 0.0
2014-Apr-12 09:28S 24°14' W 046°14'0 0.0
2014-Apr-11 10:28S 24°14' W 046°14'0 0.0
2014-Apr-11 07:22S 24°14' W 046°14'0 0.0
2014-Apr-11 04:31S 24°14' W 046°14'0 0.0
2014-Apr-10 23:22S 24°14' W 046°14'0 0.0
2014-Apr-10 16:10S 24°14' W 046°14'0 0.0
2014-Apr-10 15:22S 24°14' W 046°14'0 0.0
2014-Apr-10 13:22S 24°14' W 046°14'4 0.1
2014-Apr-09 06:30S 24°18' W 046°14'  

Dump ship's entire track history

sailing weather and tide predictions

Elizabeth — 9V8794 — position and weather